Regional Weather Roundup
Issued by NWS

Home | Current Version | Previous Version | Graphics & Text | Print | Product List | Glossary On
Versions: 1 2 3 4 5 6 7 8 9 10 11 12 13 14 15 16 17 18 19 20 21 22 23 24 25 26 27 28 29 30 31 32 33 34 35 36 37 38 39 40 41 42 43 44 45 46 47 48 49 50
135
ASUS45 KSLC 251310
RWRUT

UTAH REGIONAL WEATHER ROUNDUP
NATIONAL WEATHER SERVICE SALT LAKE CITY UT
700 AM MDT TUE APR 25 2017

UTZ001>011-023>025-251400-

NORTHERN UTAH

CITY           SKY/WX    TMP DP  RH WIND       PRES   REMARKS
BRIGHAM CITY   CLOUDY    42  36  78 CALM      29.76R
DUGWAY         LGT RAIN  38  37  94 N8        29.78  WCI  32
HILL AFB       CLOUDY    39  37  93 NW7       29.74R WCI  34
LOGAN          LGT RAIN  42  36  79 CALM      29.75R
OGDEN          CLOUDY    40  38  93 NW6       29.74R
SALT LAKE CITY CLOUDY    42  38  85 W15       29.75R
TOOELE VALLEY  RAIN      41  37  87 NW9       29.78R
WENDOVER       MOCLDY    43  29  57 NW20      29.80S
HEBER CITY     LGT SNOW  34  32  93 CALM      29.72S
WEST JORDAN    CLOUDY    42  42 100 NW13      29.76R

$$

UTZ011>015-024>027-251400-

CENTRAL/NORTHEAST UTAH

CITY           SKY/WX    TMP DP  RH WIND       PRES   REMARKS
PROVO AIRPORT  LGT RAIN  40  37  89 N8        29.76R WCI  34
MOAB/CANYONLAN PTCLDY    45  29  53 W10       29.65S
DELTA          CLOUDY    37  34  87 E5        29.78R WCI  34
PRICE          CLEAR     32  26  78 N6        29.70R WCI  26
ROOSEVELT      CLEAR     39  30  70 NW6       29.70R WCI  35
VERNAL         MOCLDY    36  29  75 CALM      29.68S

$$

UTZ013>016-019>022-027-251400-

SOUTHERN UTAH

CITY           SKY/WX    TMP DP  RH WIND       PRES   REMARKS
BRYCE CANYON   CLEAR     33  24  69 W12       29.76R WCI  24
CEDAR CITY     PTCLDY    35  28  75 CALM      29.75S
MILFORD        PTCLDY    40  33  76 N8        29.76R WCI  34
ST GEORGE      PTSUNNY   59  24  26 NW16      29.70R
HANKSVILLE     PTCLDY    46  30  53 NW9       29.71S
BLANDING       CLOUDY    46  29  51 NW8       29.77R

$$

REGIONAL REPORTS     COLORADO/ARIZONA

CITY           SKY/WX    TMP DP  RH WIND       PRES   REMARKS
CRAIG, CO      FOG       30  27  88 SE3       29.71S VSB 1/4
GRAND JUNCTION PTCLDY    42  38  85 W3        29.67R
RIFLE, CO      CLOUDY    37  35  92 CALM      29.70R
MONTROSE, CO   CLOUDY    44  33  65 S16       29.70R
CORTEZ, CO     CLOUDY    46  32  58 NW12      29.71R
COLORADO CITY    N/A     50  28  43 NW10      29.75R
PAGE, AZ       CLOUDY    58  29  33 NW10      29.65S
GRAND CANYON   PTCLDY    43  24  47 CALM      29.76S
KINGMAN, AZ    PTCLDY    54  30  40 CALM      29.71R
FLAGSTAFF, AZ  MOCLDY    45  29  53 SW10      29.77R

$$

REGIONAL REPORTS    NEVADA/IDAHO/WYOMING

CITY           SKY/WX    TMP DP  RH WIND       PRES   REMARKS
LAS VEGAS, NV  MOCLDY    67  14  13 N14G21    29.71R
ELY, NY        CLOUDY    31  30  96 W6        29.84S WCI  25
ELKO, NV       CLOUDY    37  24  59 CALM      29.89R
POCATELLO, ID  CLOUDY    38  36  92 SW14      29.76R WCI  30
BURLEY, ID     CLOUDY    38  33  82 W20G36    29.77R WCI  28
FORT BRIDGER,  CLOUDY    33  33 100 W12       29.73R WCI  24
EVANSTON, WY   FOG       31  31 100 SW9       29.71R VSB 1/2 WCI  23
ROCK SPRINGS,  CLOUDY    32  28  85 W22       29.67R WCI  19
KEMMERER, WY     N/A     28  27  93 SW7       29.69S WCI  21

$$




USA.gov is the U.S. government's official web portal to all federal, state and local government web resources and services.